BEAR Weather Reports


time (UTC)temp
C
wind
direction
speed
KPH
gust
KPH
rain 1hr
cm
rain 24hr
cm
rain mn
cm
humidity
%
barometer
mb
20260510150024 9 197 3.2 8.0 0.00 0.00 0.00 95 1012.4
20260510144533 10 360 3.2 11.3 0.00 0.00 0.00 94 1012.2
20260510143020 9 128 4.8 11.3 0.00 0.00 0.00 94 1011.4
20260510141517 10 150 3.2 9.7 0.00 0.00 0.00 93 1012.0
20260510140015 9 245 3.2 12.9 0.00 0.00 0.00 93 1011.9
20260510134515 9 228 3.2 17.7 0.00 0.00 0.00 94 1011.7
20260510133009 9 188 3.2 12.9 0.00 0.00 0.00 94 1011.4
20260510131517 9 185 6.4 14.5 0.00 0.00 0.00 94 1011.7
20260510130015 9 205 1.6 9.7 0.00 0.00 0.00 93 1011.8
20260510124505 9 159 1.6 12.9 0.00 0.00 0.00 94 1011.4
20260510123005 9 171 3.2 14.5 0.00 0.00 0.00 94 1011.6
20260510121503 9 209 4.8 11.3 0.00 0.00 0.00 94 1011.8
20260510120004 9 213 6.4 14.5 0.00 0.00 0.00 95 1011.7
20260510120001 9 217 6.4 14.5 0.00 0.00 0.00 95 1011.7
20260510114558 8 209 3.2 14.5 0.00 0.00 0.00 95 1011.5
20260510113057 8 197 4.8 16.1 0.00 0.00 0.00 94 1011.4
20260510111606 8 186 4.8 17.7 0.00 0.00 0.00 95 1011.4
20260510110053 8 154 3.2 12.9 0.00 0.00 0.00 96 1010.8
20260510104609 8 225 4.8 12.9 0.00 0.00 0.00 96 1011.0
20260510103049 8 152 4.8 11.3 0.00 0.00 0.00 96 1010.8
20260510101546 7 219 3.2 17.7 0.00 0.00 0.00 96 1010.4
20260510100045 8 189 6.4 14.5 0.00 0.00 0.00 96 1010.5
20260510094524 8 177 3.2 9.7 0.00 0.00 0.00 95 1010.5
20260510093013 8 138 3.2 8.0 0.00 0.00 0.00 95 1010.1
20260510091519 8 121 4.8 17.7 0.00 0.00 0.00 96 1010.0
20260510090009 8 198 1.6 9.7 0.00 0.00 0.00 95 1009.6
20260510084510 8 142 1.6 12.9 0.00 0.00 0.00 96 1009.8
20260510083007 8 192 3.2 16.1 0.00 0.00 0.00 96 1009.4
20260510081503 8 148 3.2 8.0 0.00 0.00 0.00 96 1009.7
20260510080005 8 191 0.0 8.0 0.00 0.00 0.00 96 1010.3
20260510074604 8 209 0.0 11.3 0.00 0.00 0.00 95 1010.4
20260510073059 8 331 1.6 6.4 0.00 0.00 0.00 94 1010.5
20260510071556 8 247 3.2 16.1 0.00 0.00 0.00 93 1010.4
20260510070057 8 142 3.2 16.1 0.00 0.00 0.00 91 1010.4
20260510064551 9 258 3.2 14.5 0.00 0.00 0.00 87 1010.5
20260510063054 9 132 1.6 12.9 0.00 0.00 0.00 86 1010.3
20260510061528 9 213 4.8 16.1 0.00 0.00 0.00 86 1010.1
20260510060039 9 136 8.0 25.7 0.00 0.00 0.00 86 1010.0
20260510054513 9 220 4.8 12.9 0.00 0.00 0.00 86 1010.3
20260510053011 9 223 0.0 12.9 0.00 0.00 0.00 86 1010.5
20260510051509 9 192 1.6 14.5 0.00 0.00 0.00 85 1010.5
20260510050007 9 215 4.8 14.5 0.00 0.00 0.00 85 1010.5
20260510044504 9 159 4.8 12.9 0.00 0.00 0.00 85 1010.3
20260510043005 9 187 4.8 14.5 0.00 0.00 0.00 84 1010.4
20260510041506 9 281 6.4 22.5 0.00 0.00 0.00 84 1010.0
20260510040101 9 171 4.8 16.1 0.00 0.00 0.00 84 1009.7
20260510034558 9 167 8.0 16.1 0.00 0.00 0.00 85 1010.1
20260510033057 9 196 3.2 11.3 0.00 0.00 0.00 85 1010.3
20260510031626 9 227 3.2 9.7 0.00 0.00 0.00 85 1010.4
20260510030055 9 172 6.4 16.1 0.00 0.00 0.00 85 1010.3
20260510024530 9 185 4.8 17.7 0.00 0.00 0.00 86 1010.4
20260510023041 9 151 1.6 22.5 0.00 0.00 0.00 86 1010.5
20260510021553 9 211 6.4 16.1 0.00 0.00 0.00 86 1010.5
20260510020053 9 159 1.6 20.9 0.00 0.00 0.00 87 1010.7
20260510014550 9 184 3.2 17.7 0.00 0.00 0.00 87 1010.6
20260510013049 9 163 4.8 17.7 0.00 0.00 0.00 87 1010.8
20260510011606 9 100 6.4 12.9 0.00 0.00 0.00 86 1010.8
20260510004518 8 205 4.8 17.7 0.00 0.00 0.00 86 1010.9
20260510003018 8 200 1.6 9.7 0.00 0.00 0.00 85 1010.9
20260510001516 8 131 1.6 11.3 0.00 0.00 0.00 85 1010.8
20260510000014 8 221 1.6 11.3 0.00 0.00 0.00 85 1010.7
20260509234514 8 175 3.2 12.9 0.00 0.00 0.00 85 1010.6
20260509233013 8 128 4.8 9.7 0.00 0.00 0.00 84 1010.5
20260509231512 8 146 3.2 27.4 0.00 0.00 0.00 86 1010.5
20260509230010 8 168 6.4 22.5 0.00 0.00 0.00 86 1010.7
20260509224509 7 191 4.8 14.5 0.00 0.00 0.00 89 1010.7
20260509223007 7 151 0.0 4.8 0.00 0.00 0.00 90 1010.9
20260509221507 7 150 3.2 9.7 0.00 0.00 0.00 90 1011.0
20260509220004 7 182 1.6 4.8 0.00 0.00 0.00 90 1011.1
20260509214502 7 213 3.2 9.7 0.00 0.00 0.00 89 1011.1
20260509213117 8 193 6.4 16.1 0.00 0.00 0.00 86 1011.2
20260509211615 8 159 4.8 12.9 0.00 0.00 0.00 84 1011.4
20260509210101 8 184 3.2 16.1 0.00 0.00 0.00 84 1011.2
20260509204603 7 165 6.4 17.7 0.00 0.00 0.00 85 1011.4
20260509203100 8 172 3.2 19.3 0.00 0.00 0.00 84 1011.4
20260509201556 7 164 6.4 19.3 0.00 0.00 0.00 86 1011.4
20260509200026 7 157 6.4 20.9 0.00 0.00 0.00 87 1011.4
20260509194621 7 148 6.4 20.9 0.00 0.00 0.00 87 1011.5
20260509193018 7 66 4.8 16.1 0.00 0.00 0.00 85 1011.8
20260509191519 7 150 3.2 11.3 0.00 0.00 0.00 83 1011.7
20260509190021 8 180 3.2 9.7 0.00 0.00 0.00 82 1011.9
20260509184513 8 170 1.6 16.1 0.00 0.00 0.00 81 1012.0
20260509183014 8 182 3.2 11.3 0.00 0.00 0.00 79 1012.2
20260509181508 8 224 3.2 11.3 0.00 0.00 0.00 77 1012.3
20260509180007 8 192 4.8 11.3 0.00 0.00 0.00 76 1012.4
20260509174508 8 220 1.6 8.0 0.00 0.00 0.00 79 1012.5
20260509173002 7 158 0.0 12.9 0.00 0.00 0.00 79 1012.8
20260509171501 8 189 3.2 9.7 0.00 0.00 0.00 74 1012.8
20260509170100 8 146 1.6 11.3 0.00 0.00 0.00 71 1012.8
20260509164600 8 145 4.8 8.0 0.00 0.00 0.00 64 1013.0
20260509163036 10 157 4.8 12.9 0.00 0.00 0.00 55 1012.9
20260509161526 10 360 3.2 9.7 0.00 0.00 0.00 53 1013.0
20260509160021 10 360 1.6 8.0 0.00 0.00 0.00 47 1013.2
20260509154519 10 360 1.6 9.7 0.00 0.00 0.00 46 1013.3
20260509153021 11 360 3.2 16.1 0.00 0.00 0.00 44 1013.4
20260509151517 10 360 4.8 14.5 0.00 0.00 0.00 43 1013.6